DW8761 Weather Reports


Display with metric or nautical units.
time (UTC)temp
F
wind
direction
speed
MPH
gust
MPH
rain 1hr
in
rain 24hr
in
rain mn
in
humidity
%
barometer
mb
20170622142540 51 80 0.0 4.0 0.00 0.00 0.00 93 1023.9
20170622141012 50 28 2.0 11.0 0.00 0.00 0.00 94 1023.9
20170622135450 49 105 0.0 8.0 0.00 0.00 0.00 94 1024.0
20170622133943 49 38 0.0 8.0 0.00 0.00 0.00 94 1024.2
20170622132440 47 38 0.0 2.0 0.00 0.00 0.00 94 1024.1
20170622130911 45 35 0.0 2.0 0.00 0.00 0.00 93 1024.1
20170622125353 45 35 0.0 0.0 0.00 0.00 0.00 92 1024.1
20170622123840 46 35 0.0 0.0 0.00 0.00 0.00 92 1024.0
20170622122325 46 35 0.0 0.0 0.00 0.00 0.00 91 1024.0
20170622120806 47 35 0.0 0.0 0.00 0.00 0.00 91 1024.0
20170622115257 47 35 0.0 0.0 0.00 0.00 0.00 91 1024.0
20170622113736 48 35 0.0 0.0 0.00 0.00 0.00 91 1024.0
20170622112228 49 35 0.0 2.0 0.00 0.00 0.00 91 1024.2
20170622110711 49 38 1.0 4.0 0.00 0.00 0.00 91 1024.4
20170622105155 49 42 0.0 0.0 0.00 0.00 0.00 90 1024.3
20170622103637 50 42 0.0 3.0 0.00 0.00 0.00 90 1024.3
20170622102123 50 42 0.0 2.0 0.00 0.00 0.00 90 1024.3
20170622100603 50 60 0.0 4.0 0.00 0.00 0.00 90 1024.4
20170622095049 51 49 2.0 7.0 0.00 0.00 0.00 90 1024.4
20170622093512 51 59 1.0 12.0 0.00 0.00 0.00 90 1024.3
20170622092005 50 33 2.0 11.0 0.00 0.00 0.00 90 1024.3
20170622090446 50 45 1.0 5.0 0.00 0.00 0.00 90 1024.3
20170622084928 50 38 0.0 5.0 0.00 0.00 0.00 89 1024.1
20170622083413 51 26 0.0 0.0 0.00 0.00 0.00 88 1024.2
20170622081903 52 26 0.0 5.0 0.00 0.00 0.00 88 1024.2
20170622080353 52 29 0.0 8.0 0.00 0.00 0.00 88 1024.3
20170622074831 52 18 5.0 16.0 0.00 0.00 0.00 88 1024.4
20170622073316 52 49 2.0 11.0 0.00 0.00 0.00 88 1024.7
20170622071805 52 30 2.0 11.0 0.00 0.00 0.00 88 1024.7
20170622070255 53 35 2.0 7.0 0.00 0.00 0.00 88 1024.7
20170622064732 53 56 5.0 12.0 0.00 0.00 0.00 88 1024.6
20170622063212 53 5 4.0 15.0 0.00 0.00 0.00 88 1024.6
20170622061656 53 321 2.0 11.0 0.00 0.00 0.00 88 1024.8
20170622060140 53 351 3.0 12.0 0.00 0.00 0.00 87 1024.6
20170622054624 53 331 2.0 8.0 0.00 0.00 0.00 87 1024.5
20170622053116 53 42 1.0 9.0 0.00 0.00 0.00 86 1024.3
20170622051604 53 44 3.0 13.0 0.00 0.00 0.00 86 1024.3
20170622050049 54 40 4.0 13.0 0.00 0.00 0.00 85 1024.2
20170622044541 54 78 6.0 15.0 0.00 0.00 0.00 85 1024.2
20170622043014 54 340 7.0 19.0 0.00 0.00 0.00 84 1024.2
20170622041441 54 351 6.0 20.0 0.00 0.00 0.00 84 1024.3
20170622035926 55 59 6.0 20.0 0.00 0.00 0.00 83 1024.2
20170622034413 55 300 5.0 22.0 0.00 0.00 0.00 83 1024.4
20170622032903 55 51 7.0 19.0 0.00 0.00 0.00 82 1024.6
20170622031348 56 15 4.0 15.0 0.00 0.00 0.00 81 1024.6
20170622025830 57 281 5.0 18.0 0.00 0.00 0.00 81 1024.6
20170622024315 57 340 4.0 19.0 0.00 0.00 0.00 80 1024.8
20170622022806 58 9 6.0 20.0 0.00 0.00 0.00 78 1024.7
20170622021252 59 13 5.0 17.0 0.00 0.00 0.00 77 1024.7
20170622015741 60 59 6.0 18.0 0.00 0.00 0.00 76 1024.8
20170622014220 61 9 6.0 15.0 0.00 0.00 0.00 75 1024.8
20170622012706 62 24 3.0 18.0 0.00 0.00 0.00 75 1025.0
20170622011152 62 86 8.0 19.0 0.00 0.00 0.00 73 1025.0
20170622005644 63 24 5.0 19.0 0.00 0.00 0.00 74 1025.2
20170622004124 63 22 3.0 12.0 0.00 0.00 0.00 74 1025.2
20170622002616 63 36 4.0 12.0 0.00 0.00 0.00 74 1025.2
20170622001056 63 246 4.0 12.0 0.00 0.00 0.00 73 1025.4
20170621235540 63 311 4.0 13.0 0.00 0.00 0.00 73 1025.4
20170621234007 64 46 3.0 12.0 0.00 0.00 0.00 73 1025.5
20170621232457 64 342 3.0 14.0 0.00 0.00 0.00 72 1025.6
20170621230950 64 31 2.0 16.0 0.00 0.00 0.00 72 1025.6
20170621225432 64 86 5.0 17.0 0.00 0.00 0.00 71 1025.6
20170621223920 64 49 3.0 13.0 0.00 0.00 0.00 71 1025.9
20170621222414 64 281 4.0 14.0 0.00 0.00 0.00 70 1026.1
20170621220845 64 219 6.0 16.0 0.00 0.00 0.00 70 1026.1
20170621215333 64 287 5.0 18.0 0.00 0.00 0.00 71 1026.1
20170621213817 64 5 3.0 14.0 0.00 0.00 0.00 74 1026.4
20170621212259 64 194 4.0 10.0 0.00 0.00 0.00 75 1026.4
20170621210747 64 132 5.0 19.0 0.00 0.00 0.00 74 1026.7
20170621205231 64 285 5.0 16.0 0.00 0.00 0.00 73 1026.7
20170621203718 64 59 5.0 17.0 0.00 0.00 0.00 73 1026.6
20170621202207 63 71 5.0 15.0 0.00 0.00 0.00 74 1026.7
20170621200702 63 219 4.0 12.0 0.00 0.00 0.00 76 1026.7
20170621195136 63 56 2.0 14.0 0.00 0.00 0.00 76 1026.8
20170621193621 63 213 6.0 13.0 0.00 0.00 0.00 75 1026.7
20170621192106 63 26 3.0 17.0 0.00 0.00 0.00 75 1027.0
20170621185019 63 50 3.0 13.0 0.00 0.00 0.00 75 1027.4